Regional Weather Roundup
Issued by NWS Little Rock, AR

Home | Current Version | Previous Version | Graphics & Text | Print | Product List | Glossary On
Versions: 1 2 3 4 5 6 7 8 9 10 11 12 13 14 15 16 17 18 19 20 21 22 23 24 25 26 27 28 29 30 31 32
000
ASUS44 KLZK 161405
RWRLZK

WEATHER ROUNDUP FOR ARKANSAS
NATIONAL WEATHER SERVICE LITTLE ROCK AR
900 AM CDT WED AUG 16 2017

NOTE: "FAIR" INDICATES FEW OR NO CLOUDS BELOW 12,000 FEET WITH NO
SIGNIFICANT WEATHER AND/OR OBSTRUCTIONS TO VISIBILITY.

ARZ001-003-010-029-161500-
NORTHWEST ARKANSAS

CITY           SKY/WX    TMP DP  RH WIND       PRES   REMARKS
FAYETTEVILLE   CLOUDY    76  74  93 S6        29.96R
FORT SMITH     CLOUDY    80  75  84 E6        29.93R HX  85
HARRISON       PTSUNNY   76  74  93 SE8       29.99R
BENTONVILLE    CLOUDY    75  72  88 S5        29.96R
ROGERS         CLOUDY    75  72  90 SE8       29.97R
SILOAM SPGS    CLOUDY    77  72  83 S10G16    29.95R
HIGHFILL       CLOUDY    76  74  93 S9        29.96R
SPRINGDALE     CLOUDY    77  75  94 S7        29.98R
$$

ARZ004-005-016-161500-
NORTH CENTRAL ARKANSAS

CITY           SKY/WX    TMP DP  RH WIND       PRES   REMARKS
BATESVILLE     PTSUNNY   79  73  83 S5        29.99R
FLIPPIN        CLOUDY    77  72  83 CALM      29.95R
MTN HOME       CLOUDY    77  76  96 S6        29.97R
$$

ARZ040-041-161500-
WEST CENTRAL ARKANSAS

CITY           SKY/WX    TMP DP  RH WIND       PRES   REMARKS
MENA           CLOUDY    81  81 100 CALM      30.01R HX  91
MOUNT IDA      MOSUNNY   82  73  74 VRB3      29.97R HX  87
$$

ARZ009-017-025-026-028-161500-
NORTHEAST ARKANSAS

CITY           SKY/WX    TMP DP  RH WIND       PRES   REMARKS
JONESBORO      CLOUDY    77  77 100 SW10      29.99R
NEWPORT        CLOUDY    76  75  97 S13       29.99R
WALNUT RIDGE   CLOUDY    77  73  88 CALM      29.98R
BLYTHEVILLE    CLOUDY    80  77  90 SW12      30.00R HX  87
NW BLYTHEVILLE PTSUNNY   81  75  83 SW12      30.00R HX  86
$$

ARZ022-023-033-042-044-161500-
CENTRAL ARKANSAS

CITY           SKY/WX    TMP DP  RH WIND       PRES   REMARKS
LITTLE ROCK    CLOUDY    78  78 100 S8        30.00R FOG
JACKSONVILLE   CLOUDY    78  78  99 S3        30.00R
CONWAY           N/A     81  77  89 S6        29.97R HX  88
SEARCY           N/A    N/A N/A N/A MISG        N/A
HOT SPRINGS    CLOUDY    81  76  84 SW5       30.00S HX  87
RUSSELLVILLE   PTSUNNY   80  77  90 E3        29.97R HX  87
CLINTON        CLOUDY    77  75  94 VRB3      29.99R FOG
$$

ARZ036-161500-
EAST ARKANSAS

CITY           SKY/WX    TMP DP  RH WIND       PRES   REMARKS
WEST MEMPHIS   CLOUDY    78  77  96 S7        30.01R
$$

ARZ050-053-066-070-073-161500-
SOUTHWEST ARKANSAS

CITY           SKY/WX    TMP DP  RH WIND       PRES   REMARKS
ARKADELPHIA    CLOUDY    80  78  94 S5        30.01R HX  88
CAMDEN         CLOUDY    82  75  78 S8        30.00S HX  89
TEXARKANA      PTSUNNY   80  77  90 S14       29.99R HX  87
EL DORADO      CLOUDY    81  77  88 SW6       30.02R HX  88
DE QUEEN       CLOUDY    80  78  94 S6        29.97R HX  88
$$

ARZ056-057-069-161500-
SOUTHEAST ARKANSAS

CITY           SKY/WX    TMP DP  RH WIND       PRES   REMARKS
PINE BLUFF     CLOUDY    79  76  90 S8        30.02R
MONTICELLO     CLOUDY    80  75  84 VRB7      30.03R HX  85

$$






USA.gov is the U.S. government's official web portal to all federal, state and local government web resources and services.